Regional Weather Roundup
Issued by NWS Binghamton, NY

Home | Current Version | Previous Version | Text Only | Print | Product List | Glossary On
Versions: 1 2 3 4 5 6 7 8 9 10 11 12 13 14 15 16 17 18 19 20 21 22 23 24 25 26 27 28
000
ASUS41 KBGM 211410
RWRBGM

REGIONAL WEATHER ROUNDUP
NATIONAL WEATHER SERVICE BINGHAMTON NY
900 AM EST TUE NOV 21 2017

Note: "fair" indicates few or no clouds below 12,000 feet with no
significant weather and/or obstructions to visibility.

* = Station(s) that does not report precipitation, such as rain,
snow, etc, also no thunder or fog.

NYZ009-015>018-022>025-036-037-044>046-055>057-062-211500
...Central New York...

CITY           SKY/WX    TMP DP  RH WIND       PRES   REMARKS
Binghamton     SUNNY     38  21  50 S9        29.93S WCI  31
Cortland       FAIR      41  25  52 S9G21     29.90F
Dansville      CLOUDY    46  19  34 S14G22    29.83F
Elmira         SUNNY     45  23  42 SW9G21    29.91F
Seneca Falls   SUNNY     45  21  39 S14       29.85F
Ithaca         SUNNY     42  22  44 S13G20    29.90F
Hamilton       SUNNY     39  21  48 S9        29.91F WCI  33
Hornell        SUNNY     45  18  33 S14G21    29.89F
Monticello     CLOUDY    34  25  69 SE3       30.04S
Penn Yan       CLOUDY    43  19  38 S21G32    29.84F
Rome           SUNNY     41  24  51 E8        29.92F
Sidney         SUNNY     39  21  48 SW8G16    29.96F WCI  34
Syracuse       PTSUNNY   42  20  41 S15       29.85F
$$

PAZ038>040-043-044-047-048-072-211500
...Northeast Pennsylvania...

CITY           SKY/WX    TMP DP  RH WIND       PRES   REMARKS
Hazleton       SUNNY     43  23  45 S5        30.06R
Scranton       SUNNY     38  24  57 CALM      30.03S
$$
&&
KEY
WCI = Wind Chill Index
VSB = Visibility
HX  = Heat Index
$$




USA.gov is the U.S. government's official web portal to all federal, state and local government web resources and services.